| 5/6/2026 | Aviance Capital Partners LLC | 95,072 | $1.39M | 0.2% | +6.2% | 0.000% | |
| 5/6/2026 | Independent Financial Group LLC | 67,275 | $982K | 0.0% | N/A | 0.000% | |
| 5/5/2026 | Journey Advisory Group LLC | 173,374 | $2.53M | 0.2% | +1.1% | 0.000% | |
| 5/1/2026 | Fifth Third Bancorp | 3,750 | $55K | 0.0% | N/A | 0.000% | |
| 4/28/2026 | Ascentis Independent Advisors | 7,377 | $108K | 0.0% | N/A | 0.000% | |
| 4/28/2026 | Berger Financial Group Inc | 105,664 | $1.54M | 0.1% | -2.1% | 0.000% | |
| 4/22/2026 | Absolute Investment Advisers LLC | 193,182 | $2.82M | 0.3% | N/A | 0.000% | |
| 4/22/2026 | Janney Montgomery Scott LLC | 206,395 | $3.01M | 0.0% | -12.6% | 0.000% | |
| 4/21/2026 | Maridea Wealth Management LLC | 12,156 | $177K | 0.0% | N/A | 0.000% | |
| 4/20/2026 | Kercheville Advisors LLC | 11,897 | $174K | 0.1% | -5.6% | 0.000% | |
Get the Latest News and Ratings for DBL and Related Stocks Enter your email address below to receive the latest news and analysts' ratings for DoubleLine Opportunistic Credit Fund and its competitors with MarketBeat's FREE daily newsletter.
|
| 3/17/2026 | Rockefeller Capital Management L.P. | 42,761 | $652K | 0.0% | +66.9% | 0.000% | |
| 2/19/2026 | Invesco Ltd. | 156,062 | $2.38M | 0.0% | -4.9% | 0.000% | |
| 2/18/2026 | Papamarkou Wellner Asset Management inc. | 10,500 | $160K | 0.1% | N/A | 0.000% | |
| 2/18/2026 | Readystate Asset Management LP | 14,697 | $224K | 0.0% | N/A | 0.000% | |
| 2/17/2026 | Guggenheim Capital LLC | 187,757 | $2.86M | 0.0% | -1.8% | 0.000% | |
| 2/17/2026 | Cetera Investment Advisers | 17,113 | $261K | 0.0% | +43.9% | 0.000% | |
| 2/17/2026 | Osaic Holdings Inc. | 17,593 | $268K | 0.0% | -24.8% | 0.000% | |
| 2/17/2026 | Royal Bank of Canada | 306,202 | $4.67M | 0.0% | +20.2% | 0.000% | |
| 2/16/2026 | Apriem Advisors | 24,110 | $368K | 0.0% | +19.9% | 0.000% | |
| 2/13/2026 | Kestra Advisory Services LLC | 13,270 | $202K | 0.0% | +6.5% | 0.000% | |
| 2/13/2026 | Stifel Financial Corp | 200,639 | $3.06M | 0.0% | -36.1% | 0.000% | |
| 2/13/2026 | Golden State Wealth Management LLC | 2,226 | $34K | 0.0% | -45.7% | 0.000% | |
| 2/13/2026 | Wells Fargo & Company MN | 268,441 | $4.09M | 0.0% | +41.3% | 0.000% | |
| 2/12/2026 | Commonwealth Equity Services LLC | 18,565 | $283K | 0.0% | +11.5% | 0.000% | |
| 2/12/2026 | Sit Investment Associates Inc. | 3,469,728 | $52.91M | 1.0% | +2.0% | 0.000% | |
| 2/11/2026 | Janney Montgomery Scott LLC | 236,256 | $3.60M | 0.0% | +1.1% | 0.000% | |
| 2/11/2026 | LPL Financial LLC | 234,499 | $3.58M | 0.0% | +7.6% | 0.000% | |
| 2/10/2026 | Intellectus Partners LLC | 290,261 | $4.43M | 0.9% | +2.0% | 0.000% | |
| 2/6/2026 | Ignite Planners LLC | 121,539 | $1.84M | 0.3% | +13.3% | 0.000% | |
| 2/6/2026 | Aviance Capital Partners LLC | 89,549 | $1.37M | 0.2% | -0.7% | 0.000% | |
| 2/5/2026 | Catawba River Capital | 257,639 | $3.93M | 1.7% | +4.2% | 0.000% | |
| 1/29/2026 | Comerica Bank | 3,750 | $57K | 0.0% | -82.0% | 0.000% | |
| 1/29/2026 | Ashton Thomas Private Wealth LLC | 18,637 | $284K | 0.0% | +4.6% | 0.000% | |
| 1/29/2026 | UBS Group AG | 568,353 | $8.67M | 0.0% | -1.1% | 0.000% | |
| 1/29/2026 | Kercheville Advisors LLC | 12,607 | $191K | 0.1% | -10.5% | 0.000% | |
| 1/27/2026 | Evergreen Capital Management LLC | 527,230 | $8.04M | 0.2% | +3.0% | 0.000% | |
| 1/27/2026 | Journey Advisory Group LLC | 171,430 | $2.61M | 0.2% | +2.0% | 0.000% | |
| 1/27/2026 | Berger Financial Group Inc | 107,945 | $1.65M | 0.1% | +2.3% | 0.000% | |
| 1/23/2026 | U.S. Capital Wealth Advisors LLC | 65,774 | $1.00M | 0.0% | +11.9% | 0.000% | |
| 1/23/2026 | Twelve Points Wealth Management LLC | 345,569 | $5.28M | 1.2% | -12.9% | 0.000% | |
|
| 1/20/2026 | Stratos Wealth Advisors LLC | 259,367 | $3.96M | 0.2% | +3.1% | 0.000% | |
| 1/12/2026 | ARS Wealth Advisors Group LLC | 14,000 | $214K | 0.0% | -5.2% | 0.000% | |
| 1/8/2026 | Gridiron Partners LLC | 43,917 | $670K | 0.4% | -98.0% | 0.000% | |
| 12/1/2025 | Polar Asset Management Partners Inc. | 166,458 | $2.59M | 0.0% | N/A | 0.000% | |
| 11/17/2025 | Strategic Wealth Partners Ltd. | 88,316 | $1.38M | 0.1% | +1.1% | 0.000% | |
| 11/17/2025 | Bank of America Corp DE | 439,401 | $6.85M | 0.0% | +86.3% | 0.000% | |
| 11/17/2025 | Ameriprise Financial Inc. | 294,470 | $4.59M | 0.0% | +6.6% | 0.000% | |
| 11/14/2025 | Polar Asset Management Partners Inc. | 166,458 | $2.59M | 0.0% | N/A | 0.000% | |
| 11/14/2025 | Raymond James Financial Inc. | 147,098 | $2.29M | 0.0% | -1.2% | 0.000% | |
| 11/14/2025 | Comerica Bank | 20,777 | $324K | 0.0% | -41.5% | 0.000% | |
| 11/13/2025 | Fort Sheridan Advisors LLC | 15,781 | $246K | 0.0% | -13.6% | 0.000% | |
| 11/12/2025 | Intellectus Partners LLC | 284,605 | $4.43M | 0.9% | +1.2% | 0.000% | |
| 11/12/2025 | Consolidated Portfolio Review Corp | 150,666 | $2.35M | 0.3% | +73.2% | 0.000% | |
| 11/10/2025 | Verus Capital Partners LLC | 33,211 | $517K | 0.0% | +3.8% | 0.000% | |
| 11/10/2025 | Catawba River Capital | 247,310 | $3.85M | 1.7% | +6.0% | 0.000% | |
| 11/10/2025 | Journey Advisory Group LLC | 168,034 | $2.62M | 0.2% | -1.1% | 0.000% | |
| 11/6/2025 | Stratos Wealth Advisors LLC | 251,623 | $3.92M | 0.2% | +114.6% | 0.000% | |
| 11/5/2025 | Envestnet Asset Management Inc. | 16,725 | $261K | 0.0% | +16.6% | 0.000% | |
| 11/3/2025 | TD Waterhouse Canada Inc. | 5,487 | $85K | 0.0% | -67.9% | 0.000% | |
| 10/31/2025 | Blackhawk Capital Partners LLC | 10,450 | $163K | 0.1% | N/A | 0.000% | |
| 10/29/2025 | Aviance Capital Partners LLC | 90,219 | $1.41M | 0.2% | +1.3% | 0.000% | |
| 10/28/2025 | Evergreen Capital Management LLC | 511,911 | $7.98M | 0.2% | +2.4% | 0.000% | |
| 10/24/2025 | World Equity Group Inc. | 11,100 | $173K | 0.0% | +7.2% | 0.000% | |
| 10/22/2025 | Shaker Financial Services LLC | 28,537 | $445K | 0.2% | +13.2% | 0.000% | |
| 10/22/2025 | Twelve Points Wealth Management LLC | 396,595 | $6.18M | 1.5% | -0.5% | 0.000% | |
| 10/14/2025 | Gridiron Partners LLC | 2,231,257 | $348K | 0.0% | +5,475.8% | 0.000% | |
| 10/14/2025 | Matrix Trust Co | 47,777 | $744K | 0.1% | -4.8% | 0.000% | |
| 10/14/2025 | Berger Financial Group Inc | 105,468 | $1.64M | 0.1% | N/A | 0.000% | |
| 10/9/2025 | U.S. Capital Wealth Advisors LLC | 58,774 | $916K | 0.0% | +23.8% | 0.000% | |
| 10/8/2025 | Ignite Planners LLC | 107,242 | $1.67M | 0.3% | +1.6% | 0.000% | |
| 10/6/2025 | ARS Wealth Advisors Group LLC | 14,767 | $230K | 0.0% | -9.4% | 0.000% | |
| 9/4/2025 | Osaic Holdings Inc. | 21,867 | $336K | 0.0% | -11.6% | 0.000% | |
| 8/29/2025 | Total Investment Management Inc. | 4,198 | $65K | 0.0% | N/A | 0.000% | |
| 8/16/2025 | Evergreen Capital Management LLC | 500,142 | $7.69M | 0.2% | +8.1% | 0.000% | |
| 8/15/2025 | Balyasny Asset Management L.P. | 28,533 | $439K | 0.0% | N/A | 0.000% | |
| 8/15/2025 | Bank of America Corp DE | 235,865 | $3.63M | 0.0% | +8.9% | 0.000% | |
| 8/15/2025 | Ameriprise Financial Inc. | 276,175 | $4.25M | 0.0% | -16.8% | 0.000% | |
| 8/14/2025 | Raymond James Financial Inc. | 148,939 | $2.29M | 0.0% | -11.5% | 0.000% | |
| 8/13/2025 | Guggenheim Capital LLC | 216,658 | $3.33M | 0.0% | -4.9% | 0.000% | |
| 8/13/2025 | Invesco Ltd. | 133,465 | $2.05M | 0.0% | -11.8% | 0.000% | |
| 8/13/2025 | Fort Sheridan Advisors LLC | 18,272 | $281K | 0.0% | -25.3% | 0.000% | |
| 8/12/2025 | XTX Topco Ltd | 10,116 | $156K | 0.0% | N/A | 0.000% | |
| 8/12/2025 | Horizon Kinetics Asset Management LLC | 26,820 | $412K | 0.0% | -5.0% | 0.000% | |
| 8/5/2025 | Intellectus Partners LLC | 281,283 | $4.33M | 0.9% | +9.5% | 0.000% | |
| 8/5/2025 | Shaker Financial Services LLC | 25,219 | $388K | 0.1% | -67.7% | 0.000% | |
| 8/5/2025 | Aviance Capital Partners LLC | 89,022 | $1.37M | 0.2% | -1.1% | 0.000% | |
| 8/1/2025 | Envestnet Asset Management Inc. | 14,338 | $221K | 0.0% | N/A | 0.000% | |
| 7/30/2025 | Journey Advisory Group LLC | 169,914 | $2.61M | 0.2% | +0.4% | 0.000% | |
| 7/29/2025 | International Assets Investment Management LLC | 140,546 | $2.16M | 0.1% | +1.4% | 0.000% | |
| 7/29/2025 | Catawba River Capital | 233,390 | $3.59M | 1.8% | N/A | 0.000% | |
|
| 7/29/2025 | Stratos Wealth Advisors LLC | 117,227 | $1.80M | 0.1% | +235.3% | 0.000% | |
| 7/23/2025 | Ignite Planners LLC | 105,511 | $1.60M | 0.2% | +25.2% | 0.000% | |
| 7/21/2025 | Ameritas Advisory Services LLC | 2,864 | $44K | 0.0% | N/A | 0.000% | |
| 7/18/2025 | Consolidated Portfolio Review Corp | 87,003 | $1.34M | 0.2% | +27.3% | 0.000% | |
| 7/17/2025 | Janney Montgomery Scott LLC | 273,200 | $4.20M | 0.0% | +3.6% | 0.000% | |
| 7/16/2025 | Twelve Points Wealth Management LLC | 398,592 | $6.13M | 1.6% | +6.8% | 0.000% | |
| 7/15/2025 | LeConte Wealth Management LLC | 636,937 | $9.80M | 6.6% | -32.1% | 0.000% | |
| 7/15/2025 | EWG Elevate Inc. | 11,530 | $177K | 0.1% | +11.9% | 0.000% | |
| 7/14/2025 | U.S. Capital Wealth Advisors LLC | 47,463 | $730K | 0.0% | +1.8% | 0.000% | |
| 7/14/2025 | Matrix Trust Co | 50,160 | $771K | 0.1% | +6.5% | 0.000% | |